This demonstration page uses our WeatherBlox Daily Observations layout. Learn more.

Left ArrowRight Arrow

32.84923, -109.75925

Hourly Observations for February 26, 2019

Temp ( °F °C ) Dew Point ( °F °C ) Humidity (%) Winds ( mph kmh ) Pressure ( in mb ) Visibility ( mi km ) Precip ( " mm )
12:51 am 00:51 Clear 43 6.1 33 0.6 68 68 WSW 3 6 30.05 1018 10 16 0.00 0.00
1:51 am 01:51 Clear 38 3.3 33 0.6 83 83 ENE 5 7 30.07 1018 10 16 0.00 0.00
4:51 am 04:51 Clear 36 2.2 29 -1.7 76 76 SSE 5 7 30.06 1018 10 16 0.00 0.00
5:51 am 05:51 Clear 33 0.6 29 -1.7 85 85 E 3 6 30.09 1019 10 16 0.00 0.00
6:51 am 06:51 Sunny 33 0.6 28 -2.2 82 82 ESE 5 7 30.12 1020 10 16 0.00 0.00
7:51 am 07:51 Sunny 39 3.9 32 0 76 76 Calm 30.16 1022 10 16 0.00 0.00
8:51 am 08:51 Sunny 47 8.3 29 -1.7 50 50 Calm 30.16 1021 10 16 0.00 0.00
9:51 am 09:51 Sunny 51 10.6 28 -2.2 41 41 Calm 30.14 1021 10 16 0.00 0.00
10:51 am 10:51 Sunny 59 15 22 -5.6 24 24 Calm 30.12 1020 10 16 0.00 0.00
11:51 am 11:51 Sunny 62 16.7 23 -5 22 22 SE 3 6 30.11 1020 10 16 0.00 0.00
12:51 pm 12:51 Sunny 65 18.3 25 -3.9 22 22 VRB 5 7 30.06 1018 10 16 0.00 0.00
1:51 pm 13:51 Sunny 67 19.4 22 -5.6 18 18 S 5 7 30.03 1017 10 16 0.00 0.00
2:51 pm 14:51 Sunny 70 21.1 14 -10 11 11 NE 5 7 30.00 1016 10 16 0.00 0.00
3:51 pm 15:51 Sunny 70 21.1 17 -8.3 13 13 undefined N/A 29.99 1016 10 16 0.00 0.00
4:51 pm 16:51 Sunny 68 20 19 -7.2 15 15 WNW 5 7 30.00 1016 10 16 0.00 0.00
5:51 pm 17:51 Sunny 64 17.8 26 -3.3 24 24 NW 5 7 30.01 1016 10 16 0.00 0.00
6:51 pm 18:51 Clear 59 15 33 0.6 38 38 NNW 7 11 30.04 1017 10 16 0.00 0.00
7:51 pm 19:51 Clear 59 15 29 -1.7 32 32 NNW 7 11 30.04 1017 10 16 0.00 0.00
8:51 pm 20:51 Clear 58 14.4 31 -0.6 36 36 Calm 30.03 1017 10 16 0.00 0.00
9:51 pm 21:51 Clear 56 13.3 34 1.1 44 44 Calm 30.03 1017 10 16 0.00 0.00
10:51 pm 22:51 Clear 54 12.2 36 2.2 51 51 E 3 6 30.04 1017 10 16 0.00 0.00
11:51 pm 23:51 Clear 51 10.6 37 2.8 59 59 ESE 3 6 30.03 1017 10 16 0.00 0.00

Powered by Vaisala Xweather